Time,TemperatureF,DewpointF,PressureIn,WindDirection,WindDirectionDegrees,WindSpeedMPH,WindSpeedGustMPH,Humidity,HourlyPrecipIn,Conditions,Clouds,dailyrainin,SoftwareType,DateUTC
2013-10-23 00:00:00,40.4,36.3,30.05,West,270,7.0,7.0,85,0.00,,,0.00,VWS V14.01,2013-10-23 05:00:00,
2013-10-23 00:05:00,40.3,36.2,30.05,WNW,284,0.0,7.0,85,0.00,,,0.00,VWS V14.01,2013-10-23 05:05:00,
2013-10-23 00:10:00,40.3,36.5,30.05,West,261,0.0,9.0,86,0.00,,,0.00,VWS V14.01,2013-10-23 05:10:00,
2013-10-23 00:15:00,40.3,36.5,30.05,WNW,284,0.0,9.0,86,0.00,,,0.00,VWS V14.01,2013-10-23 05:15:00,
2013-10-23 00:20:00,40.3,36.5,30.05,WNW,284,0.0,9.0,86,0.00,,,0.00,VWS V14.01,2013-10-23 05:20:00,
2013-10-23 00:25:00,40.4,36.3,30.05,West,281,0.0,9.0,85,0.00,,,0.00,VWS V14.01,2013-10-23 05:25:00,
2013-10-23 00:30:00,40.4,36.3,30.05,WNW,289,2.0,2.0,85,0.00,,,0.00,VWS V14.01,2013-10-23 05:30:00,
2013-10-23 00:35:00,40.5,36.3,30.05,WNW,300,5.0,5.0,85,0.00,,,0.00,VWS V14.01,2013-10-23 05:35:00,
2013-10-23 00:40:00,40.5,36.3,30.05,WNW,295,4.0,7.0,85,0.00,,,0.00,VWS V14.01,2013-10-23 05:40:00,
2013-10-23 00:45:00,40.5,36.3,30.05,WNW,288,0.0,7.0,85,0.00,,,0.00,VWS V14.01,2013-10-23 05:45:00,
2013-10-23 00:50:00,40.6,36.5,30.05,WNW,284,2.0,7.0,85,0.00,,,0.00,VWS V14.01,2013-10-23 05:50:00,
2013-10-23 00:55:00,40.6,36.5,30.05,WNW,284,4.0,7.0,85,0.00,,,0.00,VWS V14.01,2013-10-23 05:55:00,
2013-10-23 01:00:00,40.6,36.8,30.05,WNW,284,4.0,5.0,86,0.00,,,0.00,VWS V14.01,2013-10-23 06:00:00,
2013-10-23 01:05:00,40.5,36.7,30.05,WNW,284,0.0,5.0,86,0.00,,,0.00,VWS V14.01,2013-10-23 06:05:00,
2013-10-23 01:10:00,40.4,36.8,30.05,WNW,284,0.0,5.0,87,0.00,,,0.00,VWS V14.01,2013-10-23 06:10:00,
2013-10-23 01:15:00,40.4,36.8,30.05,WNW,284,0.0,6.0,87,0.00,,,0.00,VWS V14.01,2013-10-23 06:15:00,
2013-10-23 01:21:00,40.4,36.8,30.05,WNW,282,0.0,6.0,87,0.00,,,0.00,VWS V14.01,2013-10-23 06:21:00,
2013-10-23 01:26:00,40.3,36.8,30.05,WNW,284,5.0,6.0,87,0.00,,,0.00,VWS V14.01,2013-10-23 06:26:00,
2013-10-23 01:30:00,40.4,36.3,30.05,WNW,289,1.0,9.0,85,0.00,,,0.00,VWS V14.01,2013-10-23 06:30:00,
2013-10-23 01:31:00,40.2,36.7,30.05,West,269,3.0,4.0,87,0.00,,,0.00,VWS V14.01,2013-10-23 06:31:00,
2013-10-23 01:36:00,39.9,36.1,30.05,West,280,0.0,6.0,86,0.00,,,0.00,VWS V14.01,2013-10-23 06:36:00,
2013-10-23 01:41:00,39.6,35.8,30.05,WSW,253,0.0,6.0,86,0.00,,,0.00,VWS V14.01,2013-10-23 06:41:00,
2013-10-23 01:46:00,39.5,35.7,30.05,WNW,298,0.0,6.0,86,0.00,,,0.00,VWS V14.01,2013-10-23 06:46:00,
2013-10-23 01:51:00,39.4,35.6,30.05,West,275,6.0,6.0,86,0.00,,,0.00,VWS V14.01,2013-10-23 06:51:00,
2013-10-23 01:56:00,39.3,35.2,30.05,WNW,286,2.0,6.0,85,0.00,,,0.00,VWS V14.01,2013-10-23 06:56:00,
2013-10-23 02:00:00,40.6,36.8,30.05,WNW,284,2.0,7.0,86,0.00,,,0.00,VWS V14.01,2013-10-23 07:00:00,
2013-10-23 02:01:00,39.3,35.2,30.05,WNW,290,1.0,1.0,85,0.00,,,0.00,VWS V14.01,2013-10-23 07:01:00,
2013-10-23 02:06:00,39.3,35.2,30.06,WNW,290,2.0,4.0,85,0.00,,,0.00,VWS V14.01,2013-10-23 07:06:00,
2013-10-23 02:11:00,39.3,35.2,30.05,WNW,290,0.0,4.0,85,0.00,,,0.00,VWS V14.01,2013-10-23 07:11:00,
2013-10-23 02:16:00,39.3,35.2,30.05,WNW,290,2.0,4.0,85,0.00,,,0.00,VWS V14.01,2013-10-23 07:16:00,
2013-10-23 02:21:00,39.3,35.2,30.05,WNW,290,0.0,4.0,85,0.00,,,0.00,VWS V14.01,2013-10-23 07:21:00,
2013-10-23 02:26:00,39.3,35.2,30.05,WNW,290,0.0,4.0,85,0.00,,,0.00,VWS V14.01,2013-10-23 07:26:00,
2013-10-23 02:30:00,40.2,36.7,30.05,West,268,3.0,11.0,87,0.00,,,0.00,VWS V14.01,2013-10-23 07:30:00,
2013-10-23 02:31:00,39.4,35.3,30.06,WNW,290,0.0,0.0,85,0.00,,,0.00,VWS V14.01,2013-10-23 07:31:00,
2013-10-23 02:36:00,39.4,35.6,30.06,WNW,290,0.0,2.0,86,0.00,,,0.00,VWS V14.01,2013-10-23 07:36:00,
2013-10-23 02:41:00,39.4,35.6,30.06,WNW,290,0.0,4.0,86,0.00,,,0.00,VWS V14.01,2013-10-23 07:41:00,
2013-10-23 02:46:00,39.4,35.6,30.05,WNW,290,0.0,4.0,86,0.00,,,0.00,VWS V14.01,2013-10-23 07:46:00,
2013-10-23 02:51:00,39.4,35.6,30.05,WNW,290,0.0,4.0,86,0.00,,,0.00,VWS V14.01,2013-10-23 07:51:00,
2013-10-23 02:56:00,39.4,35.6,30.06,WNW,290,0.0,4.0,86,0.00,,,0.00,VWS V14.01,2013-10-23 07:56:00,
2013-10-23 03:00:00,39.3,35.2,30.05,WNW,290,0.0,6.0,85,0.00,,,0.00,VWS V14.01,2013-10-23 08:00:00,
2013-10-23 03:01:00,39.4,35.6,30.06,WNW,290,0.0,0.0,86,0.00,,,0.00,VWS V14.01,2013-10-23 08:01:00,
2013-10-23 03:06:00,39.4,35.6,30.06,WNW,290,0.0,0.0,86,0.00,,,0.00,VWS V14.01,2013-10-23 08:06:00,
2013-10-23 03:11:00,39.4,35.6,30.05,WNW,290,0.0,2.0,86,0.00,,,0.00,VWS V14.01,2013-10-23 08:11:00,
2013-10-23 03:16:00,39.3,35.5,30.05,WNW,290,0.0,2.0,86,0.00,,,0.00,VWS V14.01,2013-10-23 08:16:00,
2013-10-23 03:21:00,39.3,35.2,30.05,WNW,290,1.0,2.0,85,0.00,,,0.00,VWS V14.01,2013-10-23 08:21:00,
2013-10-23 03:26:00,39.2,35.1,30.05,WNW,290,4.0,4.0,85,0.00,,,0.00,VWS V14.01,2013-10-23 08:26:00,
2013-10-23 03:30:00,39.4,35.6,30.06,WNW,290,0.0,4.0,86,0.00,,,0.00,VWS V14.01,2013-10-23 08:30:00,
2013-10-23 03:31:00,39.1,35.0,30.05,WNW,290,0.0,0.0,85,0.00,,,0.00,VWS V14.01,2013-10-23 08:31:00,
2013-10-23 03:36:00,38.9,34.8,30.05,WNW,290,0.0,1.0,85,0.00,,,0.00,VWS V14.01,2013-10-23 08:36:00,
2013-10-23 03:41:00,38.7,34.6,30.05,WNW,290,0.0,1.0,85,0.00,,,0.00,VWS V14.01,2013-10-23 08:41:00,
2013-10-23 03:46:00,38.6,34.5,30.05,WNW,290,0.0,1.0,85,0.00,,,0.00,VWS V14.01,2013-10-23 08:46:00,
2013-10-23 03:51:00,38.4,34.3,30.05,WNW,290,0.0,1.0,85,0.00,,,0.00,VWS V14.01,2013-10-23 08:51:00,
2013-10-23 03:56:00,38.1,34.0,30.05,WNW,290,0.0,1.0,85,0.00,,,0.00,VWS V14.01,2013-10-23 08:56:00,
2013-10-23 04:00:00,39.4,35.6,30.05,WNW,290,0.0,4.0,86,0.00,,,0.00,VWS V14.01,2013-10-23 09:00:00,
2013-10-23 04:01:00,37.9,33.8,30.05,WNW,290,0.0,0.0,85,0.00,,,0.00,VWS V14.01,2013-10-23 09:01:00,
2013-10-23 04:06:00,37.7,33.9,30.05,WNW,290,1.0,1.0,86,0.00,,,0.00,VWS V14.01,2013-10-23 09:06:00,
2013-10-23 04:11:00,37.5,33.7,30.05,WNW,290,0.0,1.0,86,0.00,,,0.00,VWS V14.01,2013-10-23 09:11:00,
2013-10-23 04:16:00,37.3,33.5,30.05,WNW,290,0.0,1.0,86,0.00,,,0.00,VWS V14.01,2013-10-23 09:16:00,
2013-10-23 04:21:00,37.1,33.3,30.05,WNW,290,2.0,5.0,86,0.00,,,0.00,VWS V14.01,2013-10-23 09:21:00,
2013-10-23 04:26:00,36.9,33.1,30.05,WNW,290,1.0,5.0,86,0.00,,,0.00,VWS V14.01,2013-10-23 09:26:00,
2013-10-23 04:30:00,39.1,35.0,30.05,WNW,290,0.0,4.0,85,0.00,,,0.00,VWS V14.01,2013-10-23 09:30:00,
2013-10-23 04:31:00,36.8,33.3,30.05,WNW,290,0.0,0.0,87,0.00,,,0.00,VWS V14.01,2013-10-23 09:31:00,
2013-10-23 04:36:00,36.5,33.0,30.06,WNW,290,0.0,0.0,87,0.00,,,0.00,VWS V14.01,2013-10-23 09:36:00,
2013-10-23 04:41:00,36.4,32.9,30.05,WNW,290,0.0,0.0,87,0.00,,,0.00,VWS V14.01,2013-10-23 09:41:00,
2013-10-23 04:46:00,36.2,32.7,30.06,WNW,290,0.0,0.0,87,0.00,,,0.00,VWS V14.01,2013-10-23 09:46:00,
2013-10-23 04:51:00,36.1,32.6,30.06,WNW,290,0.0,0.0,87,0.00,,,0.00,VWS V14.01,2013-10-23 09:51:00,
2013-10-23 04:56:00,36.0,32.5,30.06,WNW,290,0.0,1.0,87,0.00,,,0.00,VWS V14.01,2013-10-23 09:56:00,
2013-10-23 05:00:00,37.9,33.8,30.05,WNW,290,0.0,1.0,85,0.00,,,0.00,VWS V14.01,2013-10-23 10:00:00,
2013-10-23 05:01:00,35.9,32.4,30.06,WNW,290,0.0,0.0,87,0.00,,,0.00,VWS V14.01,2013-10-23 10:01:00,
2013-10-23 05:06:00,35.9,32.7,30.07,WNW,290,0.0,0.0,88,0.00,,,0.00,VWS V14.01,2013-10-23 10:06:00,
2013-10-23 05:11:00,35.9,32.7,30.07,WNW,290,0.0,0.0,88,0.00,,,0.00,VWS V14.01,2013-10-23 10:11:00,
2013-10-23 05:16:00,35.9,32.7,30.07,WNW,290,0.0,0.0,88,0.00,,,0.00,VWS V14.01,2013-10-23 10:16:00,
2013-10-23 05:21:00,36.0,32.8,30.07,WNW,290,0.0,4.0,88,0.00,,,0.00,VWS V14.01,2013-10-23 10:21:00,
2013-10-23 05:26:00,36.1,32.9,30.07,WNW,290,0.0,4.0,88,0.00,,,0.00,VWS V14.01,2013-10-23 10:26:00,
2013-10-23 05:30:00,36.8,33.0,30.05,WNW,290,0.0,5.0,86,0.00,,,0.00,VWS V14.01,2013-10-23 10:30:00,
2013-10-23 05:31:00,36.1,32.9,30.08,WNW,290,0.0,0.0,88,0.00,,,0.00,VWS V14.01,2013-10-23 10:31:00,
2013-10-23 05:36:00,36.1,32.9,30.08,WNW,290,0.0,4.0,88,0.00,,,0.00,VWS V14.01,2013-10-23 10:36:00,
2013-10-23 05:41:00,36.1,32.9,30.08,WNW,290,2.0,5.0,88,0.00,,,0.00,VWS V14.01,2013-10-23 10:41:00,
2013-10-23 05:46:00,36.1,32.9,30.08,WNW,290,0.0,5.0,88,0.00,,,0.00,VWS V14.01,2013-10-23 10:46:00,
2013-10-23 05:51:00,36.1,32.9,30.08,West,267,1.0,5.0,88,0.00,,,0.00,VWS V14.01,2013-10-23 10:51:00,
2013-10-23 05:56:00,36.1,32.6,30.08,West,267,1.0,5.0,87,0.00,,,0.00,VWS V14.01,2013-10-23 10:56:00,
2013-10-23 06:00:00,35.9,32.4,30.06,WNW,290,0.0,2.0,87,0.00,,,0.00,VWS V14.01,2013-10-23 11:00:00,
2013-10-23 06:06:00,36.0,32.5,30.08,West,267,0.0,4.0,87,0.00,,,0.00,VWS V14.01,2013-10-23 11:06:00,
2013-10-23 06:11:00,36.0,32.5,30.08,West,267,0.0,4.0,87,0.00,,,0.00,VWS V14.01,2013-10-23 11:11:00,
2013-10-23 06:16:00,35.9,32.4,30.09,WNW,284,0.0,6.0,87,0.00,,,0.00,VWS V14.01,2013-10-23 11:16:00,
2013-10-23 06:21:00,35.9,32.4,30.09,NW,306,0.0,6.0,87,0.00,,,0.00,VWS V14.01,2013-10-23 11:21:00,
2013-10-23 06:26:00,35.9,32.4,30.09,NW,306,4.0,6.0,87,0.00,,,0.00,VWS V14.01,2013-10-23 11:26:00,
2013-10-23 06:30:00,36.1,32.9,30.08,WNW,290,0.0,4.0,88,0.00,,,0.00,VWS V14.01,2013-10-23 11:30:00,
2013-10-23 06:31:00,35.9,32.4,30.09,NW,306,0.0,5.0,87,0.00,,,0.00,VWS V14.01,2013-10-23 11:31:00,
2013-10-23 06:36:00,35.8,32.3,30.10,NW,306,0.0,5.0,87,0.00,,,0.00,VWS V14.01,2013-10-23 11:36:00,
2013-10-23 06:41:00,35.8,32.3,30.10,NW,306,2.0,5.0,87,0.00,,,0.00,VWS V14.01,2013-10-23 11:41:00,
2013-10-23 06:46:00,35.8,32.3,30.10,NW,306,0.0,5.0,87,0.00,,,0.00,VWS V14.01,2013-10-23 11:46:00,
2013-10-23 06:51:00,35.8,32.3,30.10,NW,306,0.0,5.0,87,0.00,,,0.00,VWS V14.01,2013-10-23 11:51:00,
2013-10-23 06:56:00,35.8,32.3,30.11,NW,306,0.0,5.0,87,0.00,,,0.00,VWS V14.01,2013-10-23 11:56:00,
2013-10-23 07:00:00,36.0,32.5,30.08,West,267,0.0,5.0,87,0.00,,,0.00,VWS V14.01,2013-10-23 12:00:00,
2013-10-23 07:01:00,35.8,32.3,30.11,NW,306,0.0,1.0,87,0.00,,,0.00,VWS V14.01,2013-10-23 12:01:00,
2013-10-23 07:06:00,35.8,32.3,30.11,NW,306,0.0,1.0,87,0.00,,,0.00,VWS V14.01,2013-10-23 12:06:00,
2013-10-23 07:11:00,35.8,32.3,30.11,NW,306,1.0,4.0,87,0.00,,,0.00,VWS V14.01,2013-10-23 12:11:00,
2013-10-23 07:16:00,35.8,32.3,30.11,NW,306,0.0,4.0,87,0.00,,,0.00,VWS V14.01,2013-10-23 12:16:00,
2013-10-23 07:21:00,35.9,32.4,30.11,NW,306,0.0,5.0,87,0.00,,,0.00,VWS V14.01,2013-10-23 12:21:00,
2013-10-23 07:26:00,36.0,32.5,30.11,NW,306,0.0,5.0,87,0.00,,,0.00,VWS V14.01,2013-10-23 12:26:00,
2013-10-23 07:30:00,35.9,32.4,30.09,NW,306,0.0,6.0,87,0.00,,,0.00,VWS V14.01,2013-10-23 12:30:00,
2013-10-23 07:32:00,36.1,32.3,30.11,NW,306,0.0,1.0,86,0.00,,,0.00,VWS V14.01,2013-10-23 12:32:00,
2013-10-23 07:37:00,36.1,32.6,30.12,NW,306,1.0,4.0,87,0.00,,,0.00,VWS V14.01,2013-10-23 12:37:00,
2013-10-23 07:42:00,36.2,32.4,30.12,NW,306,0.0,5.0,86,0.00,,,0.00,VWS V14.01,2013-10-23 12:42:00,
2013-10-23 07:47:00,36.2,32.4,30.12,NW,306,1.0,5.0,86,0.00,,,0.00,VWS V14.01,2013-10-23 12:47:00,
2013-10-23 07:52:00,36.2,32.1,30.12,NW,306,2.0,5.0,85,0.00,,,0.00,VWS V14.01,2013-10-23 12:52:00,
2013-10-23 07:57:00,36.2,32.4,30.12,NW,306,0.0,5.0,86,0.00,,,0.00,VWS V14.01,2013-10-23 12:57:00,
2013-10-23 08:00:00,35.8,32.3,30.10,NW,306,1.0,5.0,87,0.00,,,0.00,VWS V14.01,2013-10-23 13:00:00,
2013-10-23 08:02:00,36.1,32.0,30.12,NW,306,0.0,0.0,85,0.00,,,0.00,VWS V14.01,2013-10-23 13:02:00,
2013-10-23 08:07:00,36.0,32.2,30.12,NW,306,0.0,1.0,86,0.00,,,0.00,VWS V14.01,2013-10-23 13:07:00,
2013-10-23 08:12:00,36.0,32.2,30.13,NW,306,0.0,2.0,86,0.00,,,0.00,VWS V14.01,2013-10-23 13:12:00,
2013-10-23 08:17:00,36.1,32.3,30.13,NW,306,0.0,2.0,86,0.00,,,0.00,VWS V14.01,2013-10-23 13:17:00,
2013-10-23 08:22:00,36.2,32.4,30.13,NW,306,5.0,5.0,86,0.00,,,0.00,VWS V14.01,2013-10-23 13:22:00,
2013-10-23 08:27:00,36.4,32.6,30.14,NW,306,2.0,5.0,86,0.00,,,0.00,VWS V14.01,2013-10-23 13:27:00,
2013-10-23 08:30:00,36.0,32.5,30.11,NW,306,0.0,5.0,87,0.00,,,0.00,VWS V14.01,2013-10-23 13:30:00,
2013-10-23 08:32:00,36.7,32.6,30.15,WSW,242,2.0,5.0,85,0.00,,,0.00,VWS V14.01,2013-10-23 13:32:00,
2013-10-23 08:37:00,37.0,32.9,30.14,WSW,242,2.0,5.0,85,0.00,,,0.00,VWS V14.01,2013-10-23 13:37:00,
2013-10-23 08:42:00,37.3,32.9,30.14,WNW,294,5.0,6.0,84,0.00,,,0.00,VWS V14.01,2013-10-23 13:42:00,
2013-10-23 08:47:00,37.7,33.3,30.14,WNW,300,0.0,6.0,84,0.00,,,0.00,VWS V14.01,2013-10-23 13:47:00,
2013-10-23 08:52:00,38.1,33.4,30.14,WNW,300,0.0,6.0,83,0.00,,,0.00,VWS V14.01,2013-10-23 13:52:00,
2013-10-23 08:57:00,38.4,33.1,30.14,West,267,0.0,7.0,81,0.00,,,0.00,VWS V14.01,2013-10-23 13:57:00,
2013-10-23 09:00:00,36.1,32.0,30.12,NW,306,0.0,5.0,85,0.00,,,0.00,VWS V14.01,2013-10-23 14:00:00,
2013-10-23 09:02:00,38.6,33.3,30.14,WNW,296,0.0,0.0,81,0.00,,,0.00,VWS V14.01,2013-10-23 14:02:00,
2013-10-23 09:07:00,38.9,33.6,30.14,WNW,296,0.0,5.0,81,0.00,,,0.00,VWS V14.01,2013-10-23 14:07:00,
2013-10-23 09:12:00,39.3,33.7,30.14,WNW,296,0.0,5.0,80,0.00,,,0.00,VWS V14.01,2013-10-23 14:12:00,
2013-10-23 09:17:00,39.8,33.8,30.14,South,171,0.0,5.0,79,0.00,,,0.00,VWS V14.01,2013-10-23 14:17:00,
2013-10-23 09:22:00,40.3,33.7,30.15,NW,318,0.0,5.0,77,0.00,,,0.00,VWS V14.01,2013-10-23 14:22:00,
2013-10-23 09:27:00,40.4,33.5,30.14,West,279,1.0,6.0,76,0.00,,,0.00,VWS V14.01,2013-10-23 14:27:00,
2013-10-23 09:30:00,36.6,32.5,30.14,NW,306,2.0,5.0,85,0.00,,,0.00,VWS V14.01,2013-10-23 14:30:00,
2013-10-23 09:32:00,40.7,33.7,30.14,WNW,284,1.0,7.0,76,0.00,,,0.00,VWS V14.01,2013-10-23 14:32:00,
2013-10-23 09:37:00,40.9,33.6,30.15,West,279,2.0,7.0,75,0.00,,,0.00,VWS V14.01,2013-10-23 14:37:00,
2013-10-23 09:42:00,41.2,34.2,30.15,West,261,6.0,7.0,76,0.00,,,0.00,VWS V14.01,2013-10-23 14:42:00,
2013-10-23 09:47:00,41.3,33.3,30.14,WNW,284,12.0,13.0,73,0.00,,,0.00,VWS V14.01,2013-10-23 14:47:00,
2013-10-23 09:52:00,41.3,33.3,30.14,WSW,252,6.0,13.0,73,0.00,,,0.00,VWS V14.01,2013-10-23 14:52:00,
2013-10-23 09:57:00,41.5,33.8,30.15,WNW,289,2.0,13.0,74,0.00,,,0.00,VWS V14.01,2013-10-23 14:57:00,
2013-10-23 10:00:00,38.5,33.2,30.14,WNW,296,0.0,7.0,81,0.00,,,0.00,VWS V14.01,2013-10-23 15:00:00,
2013-10-23 10:02:00,41.8,33.1,30.14,NNW,337,4.0,8.0,71,0.00,,,0.00,VWS V14.01,2013-10-23 15:02:00,
2013-10-23 10:07:00,42.0,32.9,30.15,WNW,292,1.0,8.0,70,0.00,,,0.00,VWS V14.01,2013-10-23 15:07:00,
2013-10-23 10:12:00,42.4,32.6,30.15,West,279,0.0,14.0,68,0.00,,,0.00,VWS V14.01,2013-10-23 15:12:00,
2013-10-23 10:17:00,42.5,32.3,30.14,West,281,1.0,14.0,67,0.00,,,0.00,VWS V14.01,2013-10-23 15:17:00,
2013-10-23 10:22:00,42.6,32.4,30.14,West,278,1.0,14.0,67,0.00,,,0.00,VWS V14.01,2013-10-23 15:22:00,
2013-10-23 10:27:00,42.9,33.1,30.15,NW,310,5.0,14.0,68,0.00,,,0.00,VWS V14.01,2013-10-23 15:27:00,
2013-10-23 10:30:00,40.6,33.6,30.14,West,279,1.0,6.0,76,0.00,,,0.00,VWS V14.01,2013-10-23 15:30:00,
2013-10-23 10:32:00,43.3,32.7,30.14,NW,307,7.0,8.0,66,0.00,,,0.00,VWS V14.01,2013-10-23 15:32:00,
2013-10-23 10:37:00,43.7,33.1,30.15,WNW,286,0.0,8.0,66,0.00,,,0.00,VWS V14.01,2013-10-23 15:37:00,
2013-10-23 10:42:00,44.2,32.4,30.15,NW,304,5.0,9.0,63,0.00,,,0.00,VWS V14.01,2013-10-23 15:42:00,
2013-10-23 10:47:00,44.4,32.2,30.15,NW,317,2.0,9.0,62,0.00,,,0.00,VWS V14.01,2013-10-23 15:47:00,
2013-10-23 10:52:00,44.5,30.2,30.15,West,279,7.0,14.0,57,0.00,,,0.00,VWS V14.01,2013-10-23 15:52:00,
2013-10-23 10:57:00,44.4,30.6,30.15,WNW,302,0.0,14.0,58,0.00,,,0.00,VWS V14.01,2013-10-23 15:57:00,
2013-10-23 11:00:00,41.7,33.7,30.14,WSW,256,8.0,13.0,73,0.00,,,0.00,VWS V14.01,2013-10-23 16:00:00,
2013-10-23 11:02:00,44.7,30.0,30.15,NW,310,5.0,8.0,56,0.00,,,0.00,VWS V14.01,2013-10-23 16:02:00,
2013-10-23 11:07:00,44.6,29.0,30.15,WNW,284,5.0,14.0,54,0.00,,,0.00,VWS V14.01,2013-10-23 16:07:00,
2013-10-23 11:12:00,44.4,29.7,30.14,West,269,7.0,14.0,56,0.00,,,0.00,VWS V14.01,2013-10-23 16:12:00,
2013-10-23 11:17:00,44.3,29.2,30.14,WNW,299,5.0,15.0,55,0.00,,,0.00,VWS V14.01,2013-10-23 16:17:00,
2013-10-23 11:22:00,44.4,29.3,30.14,WNW,286,4.0,15.0,55,0.00,,,0.00,VWS V14.01,2013-10-23 16:22:00,
2013-10-23 11:27:00,44.9,30.2,30.14,WNW,293,1.0,15.0,56,0.00,,,0.00,VWS V14.01,2013-10-23 16:27:00,
2013-10-23 11:30:00,43.2,33.4,30.15,WNW,286,1.0,14.0,68,0.00,,,0.00,VWS V14.01,2013-10-23 16:30:00,
2013-10-23 11:32:00,45.4,30.6,30.14,NW,306,13.0,13.0,56,0.00,,,0.00,VWS V14.01,2013-10-23 16:32:00,
2013-10-23 11:37:00,45.2,29.1,30.14,WNW,298,0.0,13.0,53,0.00,,,0.00,VWS V14.01,2013-10-23 16:37:00,
2013-10-23 11:42:00,45.1,28.1,30.15,NW,305,1.0,13.0,51,0.00,,,0.00,VWS V14.01,2013-10-23 16:42:00,
2013-10-23 11:47:00,44.7,28.2,30.15,West,276,0.0,13.0,52,0.00,,,0.00,VWS V14.01,2013-10-23 16:47:00,
2013-10-23 11:52:00,44.8,27.8,30.14,NW,306,0.0,13.0,51,0.00,,,0.00,VWS V14.01,2013-10-23 16:52:00,
2013-10-23 11:57:00,44.8,30.1,30.14,West,265,5.0,13.0,56,0.00,,,0.00,VWS V14.01,2013-10-23 16:57:00,
2013-10-23 12:00:00,44.6,31.2,30.14,WNW,290,0.0,14.0,59,0.00,,,0.00,VWS V14.01,2013-10-23 17:00:00,
2013-10-23 12:02:00,44.9,27.9,30.15,West,269,1.0,13.0,51,0.00,,,0.00,VWS V14.01,2013-10-23 17:02:00,
2013-10-23 12:07:00,45.3,27.8,30.14,West,267,3.0,13.0,50,0.00,,,0.00,VWS V14.01,2013-10-23 17:07:00,
2013-10-23 12:12:00,45.8,29.2,30.14,West,274,8.0,13.0,52,0.00,,,0.00,VWS V14.01,2013-10-23 17:12:00,
2013-10-23 12:17:00,46.1,29.5,30.14,West,281,2.0,13.0,52,0.00,,,0.00,VWS V14.01,2013-10-23 17:17:00,
2013-10-23 12:22:00,46.0,27.4,30.14,WNW,295,7.0,13.0,48,0.00,,,0.00,VWS V14.01,2013-10-23 17:22:00,
2013-10-23 12:27:00,46.0,28.4,30.14,NNW,342,0.0,13.0,50,0.00,,,0.00,VWS V14.01,2013-10-23 17:27:00,
2013-10-23 12:30:00,45.2,30.5,30.14,NW,315,1.0,15.0,56,0.00,,,0.00,VWS V14.01,2013-10-23 17:30:00,
2013-10-23 12:32:00,46.2,27.6,30.13,WNW,288,1.0,8.0,48,0.00,,,0.00,VWS V14.01,2013-10-23 17:32:00,
2013-10-23 12:37:00,46.3,28.2,30.13,West,278,9.0,11.0,49,0.00,,,0.00,VWS V14.01,2013-10-23 17:37:00,
2013-10-23 12:42:00,46.1,28.5,30.13,WNW,286,0.0,12.0,50,0.00,,,0.00,VWS V14.01,2013-10-23 17:42:00,
2013-10-23 12:47:00,46.4,28.8,30.13,WNW,284,0.0,12.0,50,0.00,,,0.00,VWS V14.01,2013-10-23 17:47:00,
2013-10-23 12:52:00,47.0,28.9,30.13,WNW,302,7.0,12.0,49,0.00,,,0.00,VWS V14.01,2013-10-23 17:52:00,
2013-10-23 12:57:00,47.3,28.6,30.14,West,275,4.0,13.0,48,0.00,,,0.00,VWS V14.01,2013-10-23 17:57:00,
2013-10-23 13:00:00,44.9,27.9,30.14,NNW,335,5.0,13.0,51,0.00,,,0.00,VWS V14.01,2013-10-23 18:00:00,
2013-10-23 13:02:00,46.9,27.2,30.13,West,279,8.0,8.0,46,0.00,,,0.00,VWS V14.01,2013-10-23 18:02:00,
2013-10-23 13:07:00,46.5,28.4,30.13,West,280,7.0,11.0,49,0.00,,,0.00,VWS V14.01,2013-10-23 18:07:00,
2013-10-23 13:12:00,46.5,26.9,30.12,West,280,8.0,11.0,46,0.00,,,0.00,VWS V14.01,2013-10-23 18:12:00,
2013-10-23 13:17:00,46.4,27.3,30.12,WSW,242,1.0,11.0,47,0.00,,,0.00,VWS V14.01,2013-10-23 18:17:00,
2013-10-23 13:22:00,46.3,27.2,30.12,WSW,252,5.0,11.0,47,0.00,,,0.00,VWS V14.01,2013-10-23 18:22:00,
2013-10-23 13:27:00,46.5,26.9,30.12,West,261,8.0,11.0,46,0.00,,,0.00,VWS V14.01,2013-10-23 18:27:00,
2013-10-23 13:30:00,46.1,29.0,30.14,NNW,342,2.0,13.0,51,0.00,,,0.00,VWS V14.01,2013-10-23 18:30:00,
2013-10-23 13:32:00,46.4,27.3,30.12,WNW,285,2.0,7.0,47,0.00,,,0.00,VWS V14.01,2013-10-23 18:32:00,
2013-10-23 13:37:00,46.5,27.4,30.12,West,265,6.0,9.0,47,0.00,,,0.00,VWS V14.01,2013-10-23 18:37:00,
2013-10-23 13:42:00,46.6,26.9,30.12,West,273,2.0,9.0,46,0.00,,,0.00,VWS V14.01,2013-10-23 18:42:00,
2013-10-23 13:47:00,46.6,27.5,30.12,WNW,302,7.0,12.0,47,0.00,,,0.00,VWS V14.01,2013-10-23 18:47:00,
2013-10-23 13:52:00,46.4,27.3,30.12,WNW,286,4.0,12.0,47,0.00,,,0.00,VWS V14.01,2013-10-23 18:52:00,
2013-10-23 13:57:00,46.4,27.8,30.11,WNW,287,0.0,12.0,48,0.00,,,0.00,VWS V14.01,2013-10-23 18:57:00,
2013-10-23 14:00:00,47.1,27.4,30.13,WNW,283,2.0,13.0,46,0.00,,,0.00,VWS V14.01,2013-10-23 19:00:00,
2013-10-23 14:02:00,46.5,26.3,30.11,WNW,300,5.0,13.0,45,0.00,,,0.00,VWS V14.01,2013-10-23 19:02:00,
2013-10-23 14:07:00,46.4,27.3,30.11,WNW,296,6.0,13.0,47,0.00,,,0.00,VWS V14.01,2013-10-23 19:07:00,
2013-10-23 14:12:00,46.3,26.1,30.11,NW,304,5.0,13.0,45,0.00,,,0.00,VWS V14.01,2013-10-23 19:12:00,
2013-10-23 14:17:00,46.5,27.4,30.11,West,263,3.0,13.0,47,0.00,,,0.00,VWS V14.01,2013-10-23 19:17:00,
2013-10-23 14:22:00,47.1,26.9,30.11,WNW,303,13.0,13.0,45,0.00,,,0.00,VWS V14.01,2013-10-23 19:22:00,
2013-10-23 14:27:00,47.3,26.5,30.10,WNW,300,6.0,13.0,44,0.00,,,0.00,VWS V14.01,2013-10-23 19:27:00,
2013-10-23 14:30:00,46.4,26.8,30.12,WNW,284,1.0,15.0,46,0.00,,,0.00,VWS V14.01,2013-10-23 19:30:00,
2013-10-23 14:32:00,47.6,27.3,30.10,West,278,5.0,7.0,45,0.00,,,0.00,VWS V14.01,2013-10-23 19:32:00,
2013-10-23 14:37:00,47.9,27.0,30.10,West,259,4.0,7.0,44,0.00,,,0.00,VWS V14.01,2013-10-23 19:37:00,
2013-10-23 14:42:00,48.0,27.1,30.10,WNW,291,8.0,9.0,44,0.00,,,0.00,VWS V14.01,2013-10-23 19:42:00,
2013-10-23 14:47:00,48.2,27.9,30.10,WNW,285,0.0,9.0,45,0.00,,,0.00,VWS V14.01,2013-10-23 19:47:00,
2013-10-23 14:52:00,48.5,27.0,30.10,WNW,302,7.0,11.0,43,0.00,,,0.00,VWS V14.01,2013-10-23 19:52:00,
2013-10-23 14:57:00,48.4,28.0,30.09,NW,304,0.0,11.0,45,0.00,,,0.00,VWS V14.01,2013-10-23 19:57:00,
2013-10-23 15:00:00,46.5,28.4,30.11,West,272,7.0,12.0,49,0.00,,,0.00,VWS V14.01,2013-10-23 20:00:00,
2013-10-23 15:02:00,48.3,26.9,30.08,NW,309,11.0,13.0,43,0.00,,,0.00,VWS V14.01,2013-10-23 20:02:00,
2013-10-23 15:07:00,47.9,27.0,30.09,WNW,286,2.0,13.0,44,0.00,,,0.00,VWS V14.01,2013-10-23 20:07:00,
2013-10-23 15:12:00,47.8,27.5,30.09,WNW,284,6.0,13.0,45,0.00,,,0.00,VWS V14.01,2013-10-23 20:12:00,
2013-10-23 15:17:00,47.9,27.0,30.09,WNW,294,2.0,13.0,44,0.00,,,0.00,VWS V14.01,2013-10-23 20:17:00,
2013-10-23 15:23:00,47.9,27.6,30.10,West,268,2.0,13.0,45,0.00,,,0.00,VWS V14.01,2013-10-23 20:23:00,
2013-10-23 15:28:00,47.8,27.0,30.11,WNW,296,5.0,13.0,44,0.00,,,0.00,VWS V14.01,2013-10-23 20:28:00,
2013-10-23 15:30:00,47.5,27.2,30.10,WSW,253,4.0,13.0,45,0.00,,,0.00,VWS V14.01,2013-10-23 20:30:00,
2013-10-23 15:33:00,47.8,28.0,30.10,West,273,4.0,4.0,46,0.00,,,0.00,VWS V14.01,2013-10-23 20:33:00,
2013-10-23 15:38:00,47.8,28.0,30.10,WNW,289,5.0,6.0,46,0.00,,,0.00,VWS V14.01,2013-10-23 20:38:00,
2013-10-23 15:43:00,47.7,28.5,30.10,NW,313,5.0,10.0,47,0.00,,,0.00,VWS V14.01,2013-10-23 20:43:00,
2013-10-23 15:48:00,47.6,28.4,30.10,West,269,1.0,10.0,47,0.00,,,0.00,VWS V14.01,2013-10-23 20:48:00,
2013-10-23 15:53:00,47.5,28.3,30.09,WNW,286,8.0,14.0,47,0.00,,,0.00,VWS V14.01,2013-10-23 20:53:00,
2013-10-23 15:58:00,47.2,29.0,30.10,NNW,328,0.0,14.0,49,0.00,,,0.00,VWS V14.01,2013-10-23 20:58:00,
2013-10-23 16:00:00,48.4,27.5,30.09,West,281,4.0,11.0,44,0.00,,,0.00,VWS V14.01,2013-10-23 21:00:00,
2013-10-23 16:03:00,47.0,28.9,30.10,WNW,288,6.0,7.0,49,0.00,,,0.00,VWS V14.01,2013-10-23 21:03:00,
2013-10-23 16:08:00,46.9,28.8,30.09,WNW,286,4.0,7.0,49,0.00,,,0.00,VWS V14.01,2013-10-23 21:08:00,
2013-10-23 16:13:00,46.8,28.7,30.10,WNW,286,5.0,14.0,49,0.00,,,0.00,VWS V14.01,2013-10-23 21:13:00,
2013-10-23 16:18:00,46.5,28.9,30.09,NNW,330,2.0,14.0,50,0.00,,,0.00,VWS V14.01,2013-10-23 21:18:00,
2013-10-23 16:23:00,46.3,28.7,30.09,WNW,294,4.0,14.0,50,0.00,,,0.00,VWS V14.01,2013-10-23 21:23:00,
2013-10-23 16:28:00,46.2,29.6,30.09,NW,305,2.0,14.0,52,0.00,,,0.00,VWS V14.01,2013-10-23 21:28:00,
2013-10-23 16:30:00,47.8,28.0,30.10,WSW,252,0.0,13.0,46,0.00,,,0.00,VWS V14.01,2013-10-23 21:30:00,
2013-10-23 16:33:00,46.1,29.0,30.09,WNW,288,1.0,11.0,51,0.00,,,0.00,VWS V14.01,2013-10-23 21:33:00,
2013-10-23 16:38:00,46.0,29.4,30.09,WNW,288,1.0,11.0,52,0.00,,,0.00,VWS V14.01,2013-10-23 21:38:00,
2013-10-23 16:43:00,45.9,29.8,30.09,WNW,288,0.0,11.0,53,0.00,,,0.00,VWS V14.01,2013-10-23 21:43:00,
2013-10-23 16:48:00,45.8,30.1,30.10,WNW,288,2.0,11.0,54,0.00,,,0.00,VWS V14.01,2013-10-23 21:48:00,
2013-10-23 16:53:00,45.7,30.0,30.10,WNW,285,6.0,11.0,54,0.00,,,0.00,VWS V14.01,2013-10-23 21:53:00,
2013-10-23 16:58:00,45.6,29.5,30.10,WNW,285,0.0,11.0,53,0.00,,,0.00,VWS V14.01,2013-10-23 21:58:00,
2013-10-23 17:00:00,47.1,29.4,30.10,NNW,328,0.0,14.0,50,0.00,,,0.00,VWS V14.01,2013-10-23 22:00:00,
2013-10-23 17:03:00,45.4,29.3,30.10,WNW,288,5.0,6.0,53,0.00,,,0.00,VWS V14.01,2013-10-23 22:03:00,
2013-10-23 17:08:00,45.3,29.6,30.10,West,279,0.0,6.0,54,0.00,,,0.00,VWS V14.01,2013-10-23 22:08:00,
2013-10-23 17:13:00,45.2,30.0,30.11,West,273,7.0,7.0,55,0.00,,,0.00,VWS V14.01,2013-10-23 22:13:00,
2013-10-23 17:18:00,45.1,30.4,30.11,WNW,284,0.0,8.0,56,0.00,,,0.00,VWS V14.01,2013-10-23 22:18:00,
2013-10-23 17:23:00,44.9,31.0,30.11,WNW,284,0.0,8.0,58,0.00,,,0.00,VWS V14.01,2013-10-23 22:23:00,
2013-10-23 17:28:00,44.8,30.9,30.11,WNW,284,0.0,8.0,58,0.00,,,0.00,VWS V14.01,2013-10-23 22:28:00,
2013-10-23 17:30:00,46.2,30.0,30.09,WNW,298,6.0,14.0,53,0.00,,,0.00,VWS V14.01,2013-10-23 22:30:00,
2013-10-23 17:33:00,44.7,31.7,30.11,WNW,284,0.0,0.0,60,0.00,,,0.00,VWS V14.01,2013-10-23 22:33:00,
2013-10-23 17:38:00,44.5,31.5,30.11,WNW,284,2.0,4.0,60,0.00,,,0.00,VWS V14.01,2013-10-23 22:38:00,
2013-10-23 17:43:00,44.2,32.0,30.12,WNW,284,0.0,5.0,62,0.00,,,0.00,VWS V14.01,2013-10-23 22:43:00,
2013-10-23 17:48:00,44.1,31.9,30.11,WNW,284,0.0,5.0,62,0.00,,,0.00,VWS V14.01,2013-10-23 22:48:00,
2013-10-23 17:53:00,43.9,31.7,30.12,WNW,284,4.0,5.0,62,0.00,,,0.00,VWS V14.01,2013-10-23 22:53:00,
2013-10-23 17:58:00,43.8,32.0,30.12,WNW,284,0.0,5.0,63,0.00,,,0.00,VWS V14.01,2013-10-23 22:58:00,
2013-10-23 18:00:00,45.5,29.8,30.10,WNW,285,4.0,11.0,54,0.00,,,0.00,VWS V14.01,2013-10-23 23:00:00,
2013-10-23 18:03:00,43.7,32.0,30.12,WNW,284,1.0,1.0,63,0.00,,,0.00,VWS V14.01,2013-10-23 23:03:00,
2013-10-23 18:08:00,43.6,31.9,30.12,WNW,284,0.0,5.0,63,0.00,,,0.00,VWS V14.01,2013-10-23 23:08:00,
2013-10-23 18:13:00,43.5,31.8,30.11,WNW,284,0.0,5.0,63,0.00,,,0.00,VWS V14.01,2013-10-23 23:13:00,
2013-10-23 18:18:00,43.4,31.7,30.13,WNW,284,2.0,5.0,63,0.00,,,0.00,VWS V14.01,2013-10-23 23:18:00,
2013-10-23 18:23:00,43.4,32.4,30.13,WNW,284,0.0,5.0,65,0.00,,,0.00,VWS V14.01,2013-10-23 23:23:00,
2013-10-23 18:28:00,43.3,32.0,30.13,WNW,284,1.0,5.0,64,0.00,,,0.00,VWS V14.01,2013-10-23 23:28:00,
2013-10-23 18:30:00,44.7,31.3,30.11,WNW,284,0.0,8.0,59,0.00,,,0.00,VWS V14.01,2013-10-23 23:30:00,
2013-10-23 18:33:00,43.2,32.2,30.13,WNW,284,0.0,4.0,65,0.00,,,0.00,VWS V14.01,2013-10-23 23:33:00,
2013-10-23 18:38:00,43.1,32.2,30.13,WNW,299,4.0,5.0,65,0.00,,,0.00,VWS V14.01,2013-10-23 23:38:00,
2013-10-23 18:43:00,43.1,32.5,30.13,WNW,286,4.0,6.0,66,0.00,,,0.00,VWS V14.01,2013-10-23 23:43:00,
2013-10-23 18:48:00,42.9,32.7,30.13,WNW,286,2.0,6.0,67,0.00,,,0.00,VWS V14.01,2013-10-23 23:48:00,
2013-10-23 18:53:00,42.8,32.6,30.13,WNW,302,5.0,8.0,67,0.00,,,0.00,VWS V14.01,2013-10-23 23:53:00,
2013-10-23 18:58:00,42.6,33.2,30.14,West,271,0.0,8.0,69,0.00,,,0.00,VWS V14.01,2013-10-23 23:58:00,
2013-10-23 19:00:00,43.7,31.9,30.12,WNW,284,0.0,5.0,63,0.00,,,0.00,VWS V14.01,2013-10-24 00:00:00,
2013-10-23 19:03:00,42.3,33.2,30.14,WNW,301,0.0,8.0,70,0.00,,,0.00,VWS V14.01,2013-10-24 00:03:00,
2013-10-23 19:08:00,42.1,33.4,30.14,West,274,4.0,9.0,71,0.00,,,0.00,VWS V14.01,2013-10-24 00:08:00,
2013-10-23 19:13:00,41.9,33.5,30.14,West,275,2.0,9.0,72,0.00,,,0.00,VWS V14.01,2013-10-24 00:13:00,
2013-10-23 19:18:00,41.7,33.3,30.14,NW,316,2.0,9.0,72,0.00,,,0.00,VWS V14.01,2013-10-24 00:18:00,
2013-10-23 19:23:00,41.6,33.6,30.15,WNW,284,2.0,9.0,73,0.00,,,0.00,VWS V14.01,2013-10-24 00:23:00,
2013-10-23 19:28:00,41.4,33.8,30.15,WNW,286,2.0,9.0,74,0.00,,,0.00,VWS V14.01,2013-10-24 00:28:00,
2013-10-23 19:30:00,43.3,32.0,30.13,WNW,284,0.0,5.0,64,0.00,,,0.00,VWS V14.01,2013-10-24 00:30:00,
2013-10-23 19:33:00,41.3,34.0,30.15,WNW,286,1.0,4.0,75,0.00,,,0.00,VWS V14.01,2013-10-24 00:33:00,
2013-10-23 19:38:00,41.2,33.9,30.15,WNW,287,4.0,6.0,75,0.00,,,0.00,VWS V14.01,2013-10-24 00:38:00,
2013-10-23 19:43:00,41.1,34.1,30.15,WNW,287,2.0,6.0,76,0.00,,,0.00,VWS V14.01,2013-10-24 00:43:00,
2013-10-23 19:48:00,41.0,34.0,30.15,WNW,287,0.0,6.0,76,0.00,,,0.00,VWS V14.01,2013-10-24 00:48:00,
2013-10-23 19:53:00,40.9,33.9,30.15,WNW,284,2.0,6.0,76,0.00,,,0.00,VWS V14.01,2013-10-24 00:53:00,
2013-10-23 19:58:00,40.8,34.2,30.15,WNW,301,0.0,6.0,77,0.00,,,0.00,VWS V14.01,2013-10-24 00:58:00,
2013-10-23 20:00:00,42.5,33.1,30.14,West,280,7.0,8.0,69,0.00,,,0.00,VWS V14.01,2013-10-24 01:00:00,
2013-10-23 20:03:00,40.7,34.4,30.16,WNW,301,2.0,4.0,78,0.00,,,0.00,VWS V14.01,2013-10-24 01:03:00,
2013-10-23 20:08:00,40.6,34.3,30.16,West,281,0.0,7.0,78,0.00,,,0.00,VWS V14.01,2013-10-24 01:08:00,
2013-10-23 20:13:00,40.5,34.2,30.16,West,281,0.0,7.0,78,0.00,,,0.00,VWS V14.01,2013-10-24 01:13:00,
2013-10-23 20:18:00,40.5,34.5,30.16,West,281,2.0,7.0,79,0.00,,,0.00,VWS V14.01,2013-10-24 01:18:00,
2013-10-23 20:23:00,40.4,34.4,30.16,West,265,0.0,7.0,79,0.00,,,0.00,VWS V14.01,2013-10-24 01:23:00,
2013-10-23 20:28:00,40.3,34.3,30.16,West,265,0.0,7.0,79,0.00,,,0.00,VWS V14.01,2013-10-24 01:28:00,
2013-10-23 20:30:00,41.4,33.8,30.15,WNW,286,0.0,9.0,74,0.00,,,0.00,VWS V14.01,2013-10-24 01:30:00,
2013-10-23 20:33:00,40.2,34.2,30.16,West,265,0.0,0.0,79,0.00,,,0.00,VWS V14.01,2013-10-24 01:33:00,
2013-10-23 20:38:00,40.1,34.4,30.16,West,266,0.0,3.0,80,0.00,,,0.00,VWS V14.01,2013-10-24 01:38:00,
2013-10-23 20:43:00,40.1,34.4,30.16,West,266,0.0,3.0,80,0.00,,,0.00,VWS V14.01,2013-10-24 01:43:00,
2013-10-23 20:48:00,40.0,34.3,30.16,West,266,0.0,3.0,80,0.00,,,0.00,VWS V14.01,2013-10-24 01:48:00,
2013-10-23 20:53:00,40.1,34.8,30.16,West,266,0.0,3.0,81,0.00,,,0.00,VWS V14.01,2013-10-24 01:53:00,
2013-10-23 20:58:00,40.0,34.7,30.16,West,266,0.0,3.0,81,0.00,,,0.00,VWS V14.01,2013-10-24 01:58:00,
2013-10-23 21:00:00,40.8,34.2,30.15,WNW,301,0.0,6.0,77,0.00,,,0.00,VWS V14.01,2013-10-24 02:00:00,
2013-10-23 21:03:00,40.0,35.0,30.16,West,266,0.0,0.0,82,0.00,,,0.00,VWS V14.01,2013-10-24 02:03:00,
2013-10-23 21:08:00,40.0,35.0,30.16,West,266,0.0,2.0,82,0.00,,,0.00,VWS V14.01,2013-10-24 02:08:00,
2013-10-23 21:13:00,40.0,35.0,30.16,West,266,0.0,2.0,82,0.00,,,0.00,VWS V14.01,2013-10-24 02:13:00,
2013-10-23 21:18:00,39.9,34.9,30.16,West,266,0.0,2.0,82,0.00,,,0.00,VWS V14.01,2013-10-24 02:18:00,
2013-10-23 21:23:00,39.9,34.9,30.16,West,266,0.0,2.0,82,0.00,,,0.00,VWS V14.01,2013-10-24 02:23:00,
2013-10-23 21:28:00,39.8,35.1,30.16,West,266,0.0,2.0,83,0.00,,,0.00,VWS V14.01,2013-10-24 02:28:00,
2013-10-23 21:30:00,40.2,34.2,30.16,West,265,0.0,7.0,79,0.00,,,0.00,VWS V14.01,2013-10-24 02:30:00,
2013-10-23 21:33:00,39.8,35.1,30.16,West,266,0.0,0.0,83,0.00,,,0.00,VWS V14.01,2013-10-24 02:33:00,
2013-10-23 21:38:00,39.8,35.1,30.16,West,266,0.0,2.0,83,0.00,,,0.00,VWS V14.01,2013-10-24 02:38:00,
2013-10-23 21:43:00,39.7,35.0,30.16,West,266,0.0,2.0,83,0.00,,,0.00,VWS V14.01,2013-10-24 02:43:00,
2013-10-23 21:48:00,39.7,35.0,30.16,West,266,0.0,2.0,83,0.00,,,0.00,VWS V14.01,2013-10-24 02:48:00,
2013-10-23 21:53:00,39.6,34.9,30.16,West,266,0.0,2.0,83,0.00,,,0.00,VWS V14.01,2013-10-24 02:53:00,
2013-10-23 21:58:00,39.6,34.9,30.16,West,266,0.0,2.0,83,0.00,,,0.00,VWS V14.01,2013-10-24 02:58:00,
2013-10-23 22:00:00,40.1,34.8,30.16,West,266,0.0,3.0,81,0.00,,,0.00,VWS V14.01,2013-10-24 03:00:00,
2013-10-23 22:03:00,39.6,34.9,30.16,West,266,0.0,1.0,83,0.00,,,0.00,VWS V14.01,2013-10-24 03:03:00,
2013-10-23 22:09:00,39.5,34.8,30.16,West,266,0.0,1.0,83,0.00,,,0.00,VWS V14.01,2013-10-24 03:09:00,
2013-10-23 22:14:00,39.5,35.1,30.17,West,266,0.0,1.0,84,0.00,,,0.00,VWS V14.01,2013-10-24 03:14:00,
2013-10-23 22:19:00,39.4,35.0,30.17,West,266,0.0,1.0,84,0.00,,,0.00,VWS V14.01,2013-10-24 03:19:00,
2013-10-23 22:24:00,39.4,35.0,30.16,West,266,0.0,1.0,84,0.00,,,0.00,VWS V14.01,2013-10-24 03:24:00,
2013-10-23 22:29:00,39.4,35.0,30.16,West,266,0.0,1.0,84,0.00,,,0.00,VWS V14.01,2013-10-24 03:29:00,
2013-10-23 22:30:00,39.8,35.1,30.16,West,266,0.0,2.0,83,0.00,,,0.00,VWS V14.01,2013-10-24 03:30:00,
2013-10-23 22:34:00,39.3,34.9,30.16,West,266,0.0,0.0,84,0.00,,,0.00,VWS V14.01,2013-10-24 03:34:00,
2013-10-23 22:39:00,39.3,34.9,30.16,West,266,0.0,0.0,84,0.00,,,0.00,VWS V14.01,2013-10-24 03:39:00,
2013-10-23 22:44:00,39.3,34.9,30.17,West,266,0.0,0.0,84,0.00,,,0.00,VWS V14.01,2013-10-24 03:44:00,
2013-10-23 22:49:00,39.3,34.9,30.17,West,266,0.0,0.0,84,0.00,,,0.00,VWS V14.01,2013-10-24 03:49:00,
2013-10-23 22:54:00,39.3,34.9,30.16,West,266,0.0,0.0,84,0.00,,,0.00,VWS V14.01,2013-10-24 03:54:00,
2013-10-23 22:59:00,39.3,34.9,30.16,West,266,0.0,0.0,84,0.00,,,0.00,VWS V14.01,2013-10-24 03:59:00,
2013-10-23 23:00:00,39.6,34.9,30.16,West,266,0.0,2.0,83,0.00,,,0.00,VWS V14.01,2013-10-24 04:00:00,
2013-10-23 23:04:00,39.3,34.9,30.16,West,266,0.0,0.0,84,0.00,,,0.00,VWS V14.01,2013-10-24 04:04:00,
2013-10-23 23:09:00,39.3,35.2,30.16,West,266,0.0,0.0,85,0.00,,,0.00,VWS V14.01,2013-10-24 04:09:00,
2013-10-23 23:14:00,39.3,35.2,30.16,West,266,0.0,0.0,85,0.00,,,0.00,VWS V14.01,2013-10-24 04:14:00,
2013-10-23 23:19:00,39.3,35.2,30.15,West,266,0.0,0.0,85,0.00,,,0.00,VWS V14.01,2013-10-24 04:19:00,
2013-10-23 23:24:00,39.3,35.2,30.16,West,266,0.0,0.0,85,0.00,,,0.00,VWS V14.01,2013-10-24 04:24:00,
2013-10-23 23:29:00,39.3,35.2,30.16,West,266,0.0,0.0,85,0.00,,,0.00,VWS V14.01,2013-10-24 04:29:00,
2013-10-23 23:30:00,39.3,35.2,30.15,West,266,0.0,0.0,85,0.00,,,0.00,VWS V14.01,2013-10-24 04:30:00,
2013-10-23 23:39:00,39.4,35.3,30.15,West,266,0.0,0.0,85,0.00,,,0.00,VWS V14.01,2013-10-24 04:39:00,
2013-10-23 23:44:00,39.4,35.3,30.15,West,266,0.0,0.0,85,0.00,,,0.00,VWS V14.01,2013-10-24 04:44:00,
2013-10-23 23:54:00,39.5,35.7,30.15,West,266,0.0,0.0,86,0.00,,,0.00,VWS V14.01,2013-10-24 04:54:00,
2013-10-23 23:59:00,39.4,35.3,30.15,West,266,0.0,0.0,85,0.00,,,0.00,VWS V14.01,2013-10-24 04:59:00,